This is the latest recevied weather packets stored in our database for station/object HS4AS-1. If no packets are shown the sender has not sent any weather packets the latest 10 day(s).
| Time | Temp. | Humidity | Pressure | Rain* | Wind** | Luminosity | Snow |
|---|---|---|---|---|---|---|---|
| 1777794693 | 37.78° C | 87% | 960 hPa | - | - | - | - |
| 1777794081 | 37.22° C | 88% | 960 hPa | - | - | - | - |
| 1777793470 | 37.22° C | 91% | 960 hPa | - | - | - | - |
| 1777792858 | 37.22° C | 78% | 960 hPa | - | - | - | - |
| 1777792247 | 37.22° C | 82% | 960 hPa | - | - | - | - |
| 1777791635 | 37.22° C | 78% | 960 hPa | - | - | - | - |
| 1777791023 | 37.22° C | 78% | 961 hPa | - | - | - | - |
| 1777790412 | 37.78° C | 78% | 961 hPa | - | - | - | - |
| 1777789800 | 37.22° C | 88% | 961 hPa | - | - | - | - |
| 1777789189 | 37.22° C | 84% | 961 hPa | - | - | - | - |
| 1777788577 | 37.22° C | 90% | 962 hPa | - | - | - | - |
| 1777787965 | 36.67° C | 99% | 962 hPa | - | - | - | - |
| 1777787354 | 36.67° C | 99% | 962 hPa | - | - | - | - |
| 1777786742 | 36.67° C | 99% | 963 hPa | - | - | - | - |
| 1777786131 | 36.11° C | 99% | 963 hPa | - | - | - | - |
| 1777785519 | 35.56° C | 99% | 964 hPa | - | - | - | - |
| 1777784907 | 36.11° C | 99% | 964 hPa | - | - | - | - |
| 1777784296 | 36.67° C | 99% | 964 hPa | - | - | - | - |
| 1777783684 | 37.22° C | 97% | 964 hPa | - | - | - | - |
| 1777783073 | 38.33° C | 93% | 964 hPa | - | - | - | - |
| 1777782461 | 38.33° C | 92% | 964 hPa | - | - | - | - |
| 1777781849 | 38.33° C | 99% | 964 hPa | - | - | - | - |
| 1777781238 | 37.78° C | 96% | 964 hPa | - | - | - | - |
| 1777780626 | 37.78° C | 99% | 964 hPa | - | - | - | - |
| 1777780003 | 37.22° C | 99% | 964 hPa | - | - | - | - |
* Rain since midnight (hover to see other rain measurements)
** Current wind speed in m/s (hover to see current wind gust speed)